Darstellungsparameter: Aktuell verwendete Einstellungen:
Skalierung der Graphiken ... ?
xyx+y,   Skalierungsfaktor:      Skalierung: Modus: x, Faktor: 1
Darstellungszeitraum ... ?
Vom - - bis: - -   Zeitraum: 03.08.2016 - 02.08.2017
Min/Max/Avg-Anzeige ... ?
Zeige MMA aktuell
Zeige MMA Monat
Zeige MMA alles
Zeige --A aktuell
Zeige --A Monat
Zeige --A alles
Keine MMA-Anzeige
MMA:
Keine MMA-Graphiken
MMA-Basis: 03.08.2016 - 02.08.2017
Quicknavigation für Darstellung... ?
Tage:      1T, 2T, 3T, 5T -1T -2T -3T -5T +1T +2T +3T +5T
Wochen: 1W, 2W, 3W -1W -2W -3W +1W +2W +3W
Monate: 1M, 3M, 6M -1M -3M -6M +1M +3M +6M
Jahre:    1J, 3J, 5J, 10J -1J -3J -5J -10J +1J +3J +5J +10J
Nutze für die Darstellung ... ?
Originaldaten oder ...
Mittelwerte Minima Maxima auf...
Stundenbasis Tagesbasis Wochenbasis
Monatsbasis Jahresbasis      Datenbasis: Mittelwerte auf Tagesbasis
Darstellen als:
Statistik (Auto) Statistik J:M      Darstellung:
Zur Graphik,    zurück zur Übersicht aller Sensoren.
 
Tabellarische Datenbersicht: ?
 
Sensor: Nr:Datum:Temp:Feuchte:Taupunkt:
Aussen-T/F 1 03-08-2016 00:00:00 18.55174 C 94.0938 % 17.58 C
2 04-08-2016 00:00:00 18.01667 C 94.7188 % 17.16 C
3 05-08-2016 00:00:00 16.58403 C 88.5486 % 14.69 C
4 06-08-2016 00:00:00 17.59097 C 86.3924 % 15.29 C
5 07-08-2016 00:00:00 18.92153 C 81.4306 % 15.67 C
6 08-08-2016 00:00:00 19.25521 C 77.6701 % 15.26 C
7 09-08-2016 00:00:00 16.42986 C 72.2361 % 11.42 C
8 10-08-2016 00:00:00 13.02465 C 80.0243 % 9.66 C
9 11-08-2016 00:00:00 12.3 C 83.5417 % 9.6 C
10 12-08-2016 00:00:00 17.31701 C 90.8264 % 15.8 C
11 13-08-2016 00:00:00 20.62604 C 78.3715 % 16.73 C
12 14-08-2016 00:00:00 19.08924 C 80.5139 % 15.66 C
13 15-08-2016 00:00:00 18.95451 C 78.0243 % 15.04 C
14 16-08-2016 00:00:00 18.07778 C 75.1632 % 13.61 C
15 17-08-2016 00:00:00 18.14653 C 73.3785 % 13.31 C
16 18-08-2016 00:00:00 17.22743 C 82.1597 % 14.16 C
17 19-08-2016 00:00:00 19.36181 C 83.5174 % 16.5 C
18 20-08-2016 00:00:00 18.84757 C 83.1701 % 15.93 C
19 21-08-2016 00:00:00 17.07361 C 80.3611 % 13.67 C
20 22-08-2016 00:00:00 17.30799 C 84.0833 % 14.59 C
21 23-08-2016 00:00:00 19.09167 C 77.7708 % 15.12 C
22 24-08-2016 00:00:00 20.54583 C 77.3750 % 16.45 C
23 25-08-2016 00:00:00 21.59896 C 76.2118 % 17.23 C
24 26-08-2016 00:00:00 22.53715 C 76.8542 % 18.27 C
25 27-08-2016 00:00:00 23.96528 C 78.7674 % 20.05 C
Sensor: Nr:Datum:Temp:Feuchte:Taupunkt:
Aussen-T/F 26 28-08-2016 00:00:00 23.4684 C 72.0660 % 18.14 C
27 29-08-2016 00:00:00 18.98993 C 79.2326 % 15.31 C
28 30-08-2016 00:00:00 18.11736 C 75.7917 % 13.78 C
29 31-08-2016 00:00:00 17.84514 C 77.5278 % 13.86 C
30 01-09-2016 00:00:00 19.62431 C 75.6736 % 15.21 C
31 02-09-2016 00:00:00 18.78785 C 78.7361 % 15.02 C
32 03-09-2016 00:00:00 20.71944 C 73.6319 % 15.84 C
33 04-09-2016 00:00:00 18.18681 C 81.7396 % 15.02 C
34 05-09-2016 00:00:00 17.73715 C 79.3021 % 14.11 C
35 06-09-2016 00:00:00 16.62882 C 82.0938 % 13.56 C
36 07-09-2016 00:00:00 17.39792 C 80.3299 % 13.98 C
37 08-09-2016 00:00:00 19.44722 C 79.7535 % 15.86 C
38 09-09-2016 00:00:00 20.12222 C 70.5451 % 14.6 C
39 10-09-2016 00:00:00 19.21944 C 81.0729 % 15.89 C
40 11-09-2016 00:00:00 18.8684 C 76.5243 % 14.65 C
41 12-09-2016 00:00:00 19.58437 C 79.0764 % 15.86 C
42 13-09-2016 00:00:00 21.20937 C 77.7431 % 17.17 C
43 14-09-2016 00:00:00 20.91319 C 74.3924 % 16.19 C
44 15-09-2016 00:00:00 20.02847 C 76.3229 % 15.74 C
45 16-09-2016 00:00:00 17.33889 C 85.6076 % 14.9 C
46 17-09-2016 00:00:00 15.96146 C 85.0660 % 13.45 C
47 18-09-2016 00:00:00 17.13993 C 89.9549 % 15.48 C
48 19-09-2016 00:00:00 15.49201 C 84.4688 % 12.89 C
49 20-09-2016 00:00:00 14.8184 C 88.4965 % 12.94 C
50 21-09-2016 00:00:00 13.86563 C 78.4618 % 10.19 C
Sensor: Nr:Datum:Temp:Feuchte:Taupunkt:
Aussen-T/F 51 22-09-2016 00:00:00 11.70625 C 84.6944 % 9.22 C
52 23-09-2016 00:00:00 13.62518 C 86.6383 % 11.44 C
53 24-09-2016 00:00:00 13.82326 C 85.2188 % 11.39 C
54 25-09-2016 00:00:00 14.39201 C 85.4653 % 11.99 C
55 26-09-2016 00:00:00 14.99062 C 86.0799 % 12.68 C
56 27-09-2016 00:00:00 13.42847 C 93.2951 % 12.37 C
57 28-09-2016 00:00:00 15.2816 C 85.6632 % 12.9 C
58 29-09-2016 00:00:00 18.69375 C 79.3299 % 15.04 C
59 30-09-2016 00:00:00 15.12813 C 89.0451 % 13.34 C
60 01-10-2016 00:00:00 13.55804 C 95.6643 % 12.88 C
61 02-10-2016 00:00:00 12.49271 C 89.3333 % 10.79 C
62 03-10-2016 00:00:00 12.49236 C 92.3958 % 11.29 C
63 04-10-2016 00:00:00 10.89931 C 93.8333 % 9.95 C
64 05-10-2016 00:00:00 8.62465 C 83.2986 % 5.96 C
65 06-10-2016 00:00:00 7.98125 C 88.4201 % 6.19 C
66 07-10-2016 00:00:00 10.85069 C 93.5208 % 9.85 C
67 08-10-2016 00:00:00 9.28854 C 94.1042 % 8.39 C
68 09-10-2016 00:00:00 8.50868 C 91.9167 % 7.27 C
69 10-10-2016 00:00:00 6.46875 C 92.8993 % 5.41 C
70 11-10-2016 00:00:00 7.98993 C 90.9514 % 6.61 C
71 12-10-2016 00:00:00 8.69201 C 90.6111 % 7.24 C
72 13-10-2016 00:00:00 7.54583 C 87.7118 % 5.64 C
73 14-10-2016 00:00:00 9.31042 C 87.7674 % 7.39 C
74 15-10-2016 00:00:00 11.21667 C 90.9028 % 9.79 C
75 16-10-2016 00:00:00 8.72222 C 95.3646 % 8.02 C
Sensor: Nr:Datum:Temp:Feuchte:Taupunkt:
Aussen-T/F 76 17-10-2016 00:00:00 10.64132 C 96.5833 % 10.12 C
77 18-10-2016 00:00:00 11.33924 C 92.4236 % 10.16 C
78 19-10-2016 00:00:00 9.26389 C 89.1597 % 7.57 C
79 20-10-2016 00:00:00 8.03368 C 95.9097 % 7.42 C
80 21-10-2016 00:00:00 7.65845 C 95.9498 % 7.05 C
81 22-10-2016 00:00:00 7.80729 C 96.0000 % 7.21 C
82 23-10-2016 00:00:00 6.84236 C 95.3368 % 6.15 C
83 24-10-2016 00:00:00 9.37778 C 96.9931 % 8.93 C
84 25-10-2016 00:00:00 11.21424 C 95.8507 % 10.58 C
85 26-10-2016 00:00:00 9.47049 C 94.1597 % 8.58 C
86 27-10-2016 00:00:00 8.9309 C 95.3750 % 8.23 C
87 28-10-2016 00:00:00 11.35833 C 91.6597 % 10.05 C
88 29-10-2016 00:00:00 11.58854 C 90.4965 % 10.09 C
89 30-10-2016 00:00:00 7.61215 C 95.8229 % 6.99 C
90 31-10-2016 00:00:00 7.10417 C 96.0694 % 6.52 C
91 01-11-2016 00:00:00 6.92431 C 97.0694 % 6.49 C
92 02-11-2016 00:00:00 7.39618 C 91.7292 % 6.14 C
93 03-11-2016 00:00:00 6.31493 C 91.8819 % 5.09 C
94 04-11-2016 00:00:00 4.72674 C 94.8819 % 3.98 C
95 05-11-2016 00:00:00 6.88299 C 96.7118 % 6.4 C
96 06-11-2016 00:00:00 5.54201 C 89.6458 % 3.98 C
97 07-11-2016 00:00:00 4.69097 C 93.6354 % 3.75 C
98 08-11-2016 00:00:00 3.20521 C 92.4167 % 2.1 C
99 09-11-2016 00:00:00 3.69722 C 94.5417 % 2.9 C
100 10-11-2016 00:00:00 5.22847 C 94.8403 % 4.47 C
Sensor: Nr:Datum:Temp:Feuchte:Taupunkt:
Aussen-T/F 101 11-11-2016 00:00:00 5.08785 C 96.2569 % 4.54 C
102 12-11-2016 00:00:00 2.06181 C 93.0764 % 1.06 C
103 13-11-2016 00:00:00 2.12049 C 91.5347 % 0.89 C
104 14-11-2016 00:00:00 -0.38611 C 93.0799 % -1.37 C
105 15-11-2016 00:00:00 4.75208 C 92.9931 % 3.72 C
106 16-11-2016 00:00:00 9.88715 C 95.6910 % 9.23 C
107 17-11-2016 00:00:00 10.99757 C 89.4340 % 9.33 C
108 18-11-2016 00:00:00 9.44792 C 85.6667 % 7.17 C
109 19-11-2016 00:00:00 5.51319 C 87.6146 % 3.63 C
110 20-11-2016 00:00:00 9.3559 C 81.1806 % 6.3 C
111 21-11-2016 00:00:00 10.27813 C 92.0208 % 9.04 C
112 22-11-2016 00:00:00 10.22222 C 93.8160 % 9.27 C
113 23-11-2016 00:00:00 8.56389 C 96.9931 % 8.11 C
114 24-11-2016 00:00:00 8.79306 C 94.5590 % 7.97 C
115 25-11-2016 00:00:00 7.72222 C 85.3924 % 5.43 C
116 26-11-2016 00:00:00 6.87708 C 88.3542 % 5.09 C
117 27-11-2016 00:00:00 5.11215 C 92.9514 % 4.07 C
118 28-11-2016 00:00:00 -0.13333 C 93.4583 % -1.06 C
119 29-11-2016 00:00:00 -2.74097 C 91.0382 % -4 C
120 30-11-2016 00:00:00 -2.71076 C 92.1319 % -3.81 C
121 01-12-2016 00:00:00 3.3875 C 84.6354 % 1.05 C
122 02-12-2016 00:00:00 5.17361 C 93.7917 % 4.26 C
123 03-12-2016 00:00:00 -0.32882 C 96.9410 % -0.75 C
124 04-12-2016 00:00:00 -2.61215 C 96.1840 % -3.13 C
125 05-12-2016 00:00:00 -3.83507 C 95.3438 % -4.47 C
Sensor: Nr:Datum:Temp:Feuchte:Taupunkt:
Aussen-T/F 126 06-12-2016 00:00:00 -3.15903 C 95.5972 % -3.76 C
127 07-12-2016 00:00:00 -0.29965 C 96.1111 % -0.84 C
128 08-12-2016 00:00:00 1.07778 C 94.8542 % 0.35 C
129 09-12-2016 00:00:00 6.58819 C 84.4861 % 4.17 C
130 10-12-2016 00:00:00 5.04201 C 91.7743 % 3.82 C
131 11-12-2016 00:00:00 8.10174 C 85.5174 % 5.82 C
132 12-12-2016 00:00:00 6.76563 C 92.9792 % 5.71 C
133 13-12-2016 00:00:00 4.10868 C 96.3160 % 3.58 C
134 14-12-2016 00:00:00 6.42569 C 95.7986 % 5.81 C
135 15-12-2016 00:00:00 6.89583 C 94.3924 % 6.06 C
136 16-12-2016 00:00:00 4.60451 C 88.2778 % 2.84 C
137 17-12-2016 00:00:00 3.86806 C 91.7222 % 2.65 C
138 18-12-2016 00:00:00 5.3059 C 94.3750 % 4.48 C
139 19-12-2016 00:00:00 4.3816 C 89.4236 % 2.8 C
140 20-12-2016 00:00:00 1.0875 C 91.6424 % -0.12 C
141 21-12-2016 00:00:00 2.26076 C 91.9444 % 1.09 C
142 22-12-2016 00:00:00 3.84896 C 93.6701 % 2.92 C
143 23-12-2016 00:00:00 4.14757 C 95.4340 % 3.48 C
144 24-12-2016 00:00:00 7.17188 C 86.6597 % 5.1 C
145 25-12-2016 00:00:00 8.5434 C 89.2674 % 6.88 C
146 26-12-2016 00:00:00 7.71215 C 88.2118 % 5.89 C
147 27-12-2016 00:00:00 4.30139 C 88.8160 % 2.62 C
148 28-12-2016 00:00:00 3.53819 C 90.0035 % 2.06 C
149 29-12-2016 00:00:00 -1.78438 C 96.3299 % -2.29 C
150 30-12-2016 00:00:00 -2.37014 C 96.3924 % -2.86 C
Sensor: Nr:Datum:Temp:Feuchte:Taupunkt:
Aussen-T/F 151 31-12-2016 00:00:00 -4.09028 C 95.6424 % -4.68 C
152 01-01-2017 00:00:00 -2.24792 C 95.3854 % -2.88 C
153 02-01-2017 00:00:00 0.68021 C 94.3229 % -0.12 C
154 03-01-2017 00:00:00 1.83819 C 91.4340 % 0.59 C
155 04-01-2017 00:00:00 3.52049 C 90.0556 % 2.05 C
156 05-01-2017 00:00:00 0.04687 C 83.2813 % -2.44 C
157 06-01-2017 00:00:00 -6.48125 C 90.3090 % -7.8 C
158 07-01-2017 00:00:00 -4.20694 C 86.7674 % -6.08 C
159 08-01-2017 00:00:00 0.59306 C 95.4583 % -0.05 C
160 09-01-2017 00:00:00 2.15 C 93.8819 % 1.27 C
161 10-01-2017 00:00:00 1.40799 C 95.5625 % 0.78 C
162 11-01-2017 00:00:00 3.72639 C 93.5799 % 2.79 C
163 12-01-2017 00:00:00 4.3066 C 88.2396 % 2.54 C
164 13-01-2017 00:00:00 2.18576 C 91.4097 % 0.94 C
165 14-01-2017 00:00:00 2.66806 C 85.3611 % 0.46 C
166 15-01-2017 00:00:00 0.83819 C 92.1910 % -0.28 C
167 16-01-2017 00:00:00 -1.62361 C 93.6910 % -2.5 C
168 17-01-2017 00:00:00 -3.91493 C 91.1875 % -5.14 C
169 18-01-2017 00:00:00 -5.38646 C 91.6875 % -6.52 C
170 19-01-2017 00:00:00 -6.17292 C 92.2153 % -7.23 C
171 20-01-2017 00:00:00 -6.54167 C 91.1458 % -7.74 C
172 21-01-2017 00:00:00 -5.94167 C 92.0660 % -7.02 C
173 22-01-2017 00:00:00 -7.48889 C 92.6806 % -8.47 C
174 23-01-2017 00:00:00 -5.41458 C 93.0035 % -6.36 C
175 24-01-2017 00:00:00 -0.75035 C 91.2257 % -2 C
Sensor: Nr:Datum:Temp:Feuchte:Taupunkt:
Aussen-T/F 176 25-01-2017 00:00:00 -1.16701 C 83.8021 % -3.55 C
177 26-01-2017 00:00:00 -1.71667 C 84.5069 % -3.98 C
178 27-01-2017 00:00:00 -3.44306 C 90.2188 % -4.81 C
179 28-01-2017 00:00:00 -1.90347 C 90.7083 % -3.22 C
180 29-01-2017 00:00:00 2.8691 C 91.9722 % 1.7 C
181 30-01-2017 00:00:00 4.73507 C 94.6528 % 3.95 C
182 31-01-2017 00:00:00 3.29583 C 91.5174 % 2.05 C
183 01-02-2017 00:00:00 3.48611 C 87.9896 % 1.69 C
184 02-02-2017 00:00:00 5.1434 C 94.4132 % 4.32 C
185 03-02-2017 00:00:00 5.66007 C 94.2396 % 4.81 C
186 04-02-2017 00:00:00 6.00556 C 89.9549 % 4.49 C
187 05-02-2017 00:00:00 4.83993 C 91.1181 % 3.52 C
188 06-02-2017 00:00:00 3.82396 C 89.6493 % 2.28 C
189 07-02-2017 00:00:00 4.2184 C 89.5347 % 2.66 C
190 08-02-2017 00:00:00 2.98785 C 85.8160 % 0.85 C
191 09-02-2017 00:00:00 0.05903 C 84.0729 % -2.3 C
192 10-02-2017 00:00:00 0.67222 C 82.7813 % -1.91 C
193 11-02-2017 00:00:00 1.79896 C 93.6910 % 0.89 C
194 12-02-2017 00:00:00 2.74132 C 92.1215 % 1.59 C
195 13-02-2017 00:00:00 3.48576 C 82.9653 % 0.87 C
196 14-02-2017 00:00:00 1.66042 C 85.0833 % -0.57 C
197 15-02-2017 00:00:00 2.27639 C 90.1181 % 0.83 C
198 16-02-2017 00:00:00 4.06597 C 95.0382 % 3.34 C
199 17-02-2017 00:00:00 6.02222 C 95.7882 % 5.4 C
200 18-02-2017 00:00:00 5.94097 C 89.9375 % 4.42 C
Sensor: Nr:Datum:Temp:Feuchte:Taupunkt:
Aussen-T/F 201 19-02-2017 00:00:00 3.47083 C 91.4722 % 2.22 C
202 20-02-2017 00:00:00 8.45104 C 91.1111 % 7.09 C
203 21-02-2017 00:00:00 10.41458 C 92.1806 % 9.2 C
204 22-02-2017 00:00:00 11.10243 C 86.9167 % 9.01 C
205 23-02-2017 00:00:00 9.37708 C 82.3160 % 6.52 C
206 24-02-2017 00:00:00 5.21007 C 80.1215 % 2.07 C
207 25-02-2017 00:00:00 3.83993 C 84.8889 % 1.54 C
208 26-02-2017 00:00:00 8.62951 C 75.2188 % 4.5 C
209 27-02-2017 00:00:00 10.96042 C 73.1771 % 6.35 C
210 28-02-2017 00:00:00 5.79618 C 82.1285 % 2.99 C
211 01-03-2017 00:00:00 6.67257 C 86.8229 % 4.64 C
212 02-03-2017 00:00:00 8.27986 C 68.5764 % 2.85 C
213 03-03-2017 00:00:00 6.21771 C 76.6840 % 2.44 C
214 04-03-2017 00:00:00 10.95451 C 72.5382 % 6.22 C
215 05-03-2017 00:00:00 7.21354 C 86.9063 % 5.18 C
216 06-03-2017 00:00:00 6.48333 C 88.9306 % 4.79 C
217 07-03-2017 00:00:00 6.06806 C 92.0243 % 4.87 C
218 08-03-2017 00:00:00 5.01528 C 95.6597 % 4.38 C
219 09-03-2017 00:00:00 11.11146 C 85.3472 % 8.75 C
220 10-03-2017 00:00:00 7.4684 C 74.9896 % 3.33 C
221 11-03-2017 00:00:00 6.7316 C 76.7847 % 2.95 C
222 12-03-2017 00:00:00 6.62813 C 73.0590 % 2.15 C
223 13-03-2017 00:00:00 6.71007 C 76.5278 % 2.88 C
224 14-03-2017 00:00:00 9.45625 C 79.7708 % 6.14 C
225 15-03-2017 00:00:00 10.41493 C 79.8819 % 7.1 C
Sensor: Nr:Datum:Temp:Feuchte:Taupunkt:
Aussen-T/F 226 16-03-2017 00:00:00 8.32569 C 79.1250 % 4.93 C
227 17-03-2017 00:00:00 8.68507 C 77.3438 % 4.95 C
228 18-03-2017 00:00:00 9.53889 C 87.9514 % 7.64 C
229 19-03-2017 00:00:00 12.1559 C 84.9444 % 9.7 C
230 20-03-2017 00:00:00 11.60278 C 74.2986 % 7.19 C
231 21-03-2017 00:00:00 9.375 C 83.3090 % 6.69 C
232 22-03-2017 00:00:00 5.39132 C 87.9861 % 3.57 C
233 23-03-2017 00:00:00 8.8434 C 81.9097 % 5.93 C
234 24-03-2017 00:00:00 9.49444 C 76.3194 % 5.54 C
235 25-03-2017 00:00:00 9.21424 C 65.5590 % 3.11 C
236 26-03-2017 00:00:00 9.36594 C 63.8080 % 2.87 C
237 27-03-2017 00:00:00 8.83194 C 64.8194 % 2.59 C
238 28-03-2017 00:00:00 10.73819 C 69.2431 % 5.34 C
239 29-03-2017 00:00:00 12.89063 C 73.7014 % 8.31 C
240 30-03-2017 00:00:00 14.33507 C 72.3819 % 9.44 C
241 31-03-2017 00:00:00 13.69896 C 69.0938 % 8.14 C
242 01-04-2017 00:00:00 13.59792 C 71.9792 % 8.65 C
243 02-04-2017 00:00:00 11.71736 C 74.2222 % 7.29 C
244 03-04-2017 00:00:00 10.47257 C 76.1042 % 6.45 C
245 04-04-2017 00:00:00 9.3059 C 73.6285 % 4.85 C
246 05-04-2017 00:00:00 8.78889 C 75.9444 % 4.79 C
247 06-04-2017 00:00:00 8.65278 C 73.7292 % 4.23 C
248 07-04-2017 00:00:00 11.31566 C 70.4578 % 6.14 C
249 08-04-2017 00:00:00 14.59887 C 63.6780 % 7.8 C
250 09-04-2017 00:00:00 12.46215 C 72.6910 % 7.7 C
Sensor: Nr:Datum:Temp:Feuchte:Taupunkt:
Aussen-T/F 251 10-04-2017 00:00:00 10.93993 C 75.5174 % 6.79 C
252 11-04-2017 00:00:00 9.67188 C 68.7778 % 4.22 C
253 12-04-2017 00:00:00 11.34167 C 67.3993 % 5.53 C
254 13-04-2017 00:00:00 11.57153 C 68.3403 % 5.95 C
255 14-04-2017 00:00:00 9.77708 C 68.5660 % 4.28 C
256 15-04-2017 00:00:00 9.0875 C 81.6493 % 6.12 C
257 16-04-2017 00:00:00 7.52083 C 79.0590 % 4.13 C
258 17-04-2017 00:00:00 6.82257 C 84.8090 % 4.45 C
259 18-04-2017 00:00:00 5.52187 C 80.9167 % 2.51 C
260 19-04-2017 00:00:00 4.23646 C 70.6042 % -0.62 C
261 20-04-2017 00:00:00 4.68715 C 68.7882 % -0.54 C
262 21-04-2017 00:00:00 7.98299 C 70.7431 % 3 C
263 22-04-2017 00:00:00 9.60278 C 72.4063 % 4.89 C
264 23-04-2017 00:00:00 7.34722 C 68.6632 % 1.98 C
265 24-04-2017 00:00:00 8.25764 C 68.6424 % 2.84 C
266 25-04-2017 00:00:00 8.07118 C 68.6493 % 2.67 C
267 26-04-2017 00:00:00 7.03611 C 68.0208 % 1.55 C
268 27-04-2017 00:00:00 7.07917 C 67.6528 % 1.51 C
269 28-04-2017 00:00:00 6.15972 C 79.5104 % 2.89 C
270 29-04-2017 00:00:00 8.79132 C 71.5069 % 3.93 C
271 30-04-2017 00:00:00 11.04896 C 60.7951 % 3.78 C
272 01-05-2017 00:00:00 10.13576 C 85.0347 % 7.74 C
273 02-05-2017 00:00:00 9.00868 C 95.4549 % 8.32 C
274 03-05-2017 00:00:00 10.15694 C 90.6042 % 8.69 C
275 04-05-2017 00:00:00 11.64722 C 89.7361 % 10.02 C
Sensor: Nr:Datum:Temp:Feuchte:Taupunkt:
Aussen-T/F 276 05-05-2017 00:00:00 11.58021 C 81.0417 % 8.44 C
277 06-05-2017 00:00:00 12.91042 C 78.0139 % 9.17 C
278 07-05-2017 00:00:00 13.1434 C 93.6319 % 12.14 C
279 08-05-2017 00:00:00 9.64306 C 86.9063 % 7.57 C
280 09-05-2017 00:00:00 9.69931 C 70.4861 % 4.6 C
281 10-05-2017 00:00:00 10.29583 C 70.5590 % 5.19 C
282 11-05-2017 00:00:00 14.23542 C 73.0590 % 9.48 C
283 12-05-2017 00:00:00 15.89479 C 85.6250 % 13.49 C
284 13-05-2017 00:00:00 17.24514 C 75.3472 % 12.85 C
285 14-05-2017 00:00:00 16.17049 C 80.8993 % 12.89 C
286 15-05-2017 00:00:00 15.43403 C 72.0104 % 10.42 C
287 16-05-2017 00:00:00 18.86458 C 61.2049 % 11.24 C
288 17-05-2017 00:00:00 20.20243 C 65.0521 % 13.43 C
289 18-05-2017 00:00:00 17.96042 C 84.5729 % 15.32 C
290 19-05-2017 00:00:00 13.45694 C 96.0694 % 12.84 C
291 20-05-2017 00:00:00 12.04375 C 83.9931 % 9.43 C
292 21-05-2017 00:00:00 13.43889 C 75.2118 % 9.14 C
293 22-05-2017 00:00:00 16.05417 C 73.8090 % 11.39 C
294 23-05-2017 00:00:00 18.46736 C 69.4410 % 12.78 C
295 24-05-2017 00:00:00 16.81771 C 73.7639 % 12.11 C
296 25-05-2017 00:00:00 18.59167 C 70.2604 % 13.07 C
297 26-05-2017 00:00:00 18.71042 C 70.8472 % 13.31 C
298 27-05-2017 00:00:00 21.17049 C 66.6285 % 14.72 C
299 28-05-2017 00:00:00 21.21493 C 78.3993 % 17.31 C
300 29-05-2017 00:00:00 23.54271 C 75.5660 % 18.97 C
Sensor: Nr:Datum:Temp:Feuchte:Taupunkt:
Aussen-T/F 301 30-05-2017 00:00:00 21.97847 C 74.9549 % 17.33 C
302 31-05-2017 00:00:00 18.61667 C 68.5278 % 12.72 C
303 01-06-2017 00:00:00 18.99792 C 71.5590 % 13.74 C
304 02-06-2017 00:00:00 19.04583 C 83.6771 % 16.22 C
305 03-06-2017 00:00:00 18.89236 C 93.4132 % 17.81 C
306 04-06-2017 00:00:00 16.44306 C 84.5556 % 13.83 C
307 05-06-2017 00:00:00 16.50278 C 76.9792 % 12.46 C
308 06-06-2017 00:00:00 15.18958 C 77.8750 % 11.36 C
309 07-06-2017 00:00:00 13.87778 C 75.5347 % 9.63 C
310 08-06-2017 00:00:00 18.08924 C 68.5382 % 12.21 C
311 09-06-2017 00:00:00 16.93299 C 81.6319 % 13.77 C
312 10-06-2017 00:00:00 17.78368 C 70.4792 % 12.35 C
313 11-06-2017 00:00:00 20.38229 C 71.8993 % 15.15 C
314 12-06-2017 00:00:00 20.21667 C 59.4410 % 12.07 C
315 13-06-2017 00:00:00 17.4059 C 67.4549 % 11.32 C
316 14-06-2017 00:00:00 18.66597 C 69.6042 % 13 C
317 15-06-2017 00:00:00 21.18299 C 70.3333 % 15.57 C
318 16-06-2017 00:00:00 18.97743 C 62.8646 % 11.75 C
319 17-06-2017 00:00:00 17.05035 C 76.4444 % 12.88 C
320 18-06-2017 00:00:00 21.54514 C 69.8229 % 15.8 C
321 19-06-2017 00:00:00 22.06667 C 64.3160 % 15.02 C
322 20-06-2017 00:00:00 23.55069 C 62.5590 % 15.99 C
323 21-06-2017 00:00:00 25.2191 C 62.1146 % 17.45 C
324 22-06-2017 00:00:00 23.325 C 77.8264 % 19.23 C
325 23-06-2017 00:00:00 22.47014 C 68.4063 % 16.36 C
Sensor: Nr:Datum:Temp:Feuchte:Taupunkt:
Aussen-T/F 326 24-06-2017 00:00:00 20.09028 C 64.8924 % 13.28 C
327 25-06-2017 00:00:00 20.12639 C 70.0938 % 14.51 C
328 26-06-2017 00:00:00 21.1184 C 67.1667 % 14.79 C
329 27-06-2017 00:00:00 18.80104 C 85.3229 % 16.29 C
330 28-06-2017 00:00:00 19.80208 C 90.8299 % 18.26 C
331 29-06-2017 00:00:00 17.97535 C 86.2396 % 15.64 C
332 30-06-2017 00:00:00 17.41624 C 77.3875 % 13.42 C
333 01-07-2017 00:00:00 16.45451 C 89.6250 % 14.74 C
334 02-07-2017 00:00:00 16.87188 C 88.2361 % 14.91 C
335 03-07-2017 00:00:00 17.94201 C 72.9201 % 13.02 C
336 04-07-2017 00:00:00 19.98993 C 68.9375 % 14.12 C
337 05-07-2017 00:00:00 21.5875 C 69.0903 % 15.68 C
338 06-07-2017 00:00:00 21.41701 C 76.5278 % 17.12 C
339 07-07-2017 00:00:00 23.46076 C 73.7674 % 18.51 C
340 08-07-2017 00:00:00 22.5559 C 70.5035 % 16.92 C
341 09-07-2017 00:00:00 22.69271 C 74.1007 % 17.84 C
342 10-07-2017 00:00:00 19.75243 C 93.9792 % 18.76 C
343 11-07-2017 00:00:00 19.33264 C 81.8993 % 16.16 C
344 12-07-2017 00:00:00 17.22951 C 89.4514 % 15.48 C
345 13-07-2017 00:00:00 15.53958 C 75.6667 % 11.26 C
346 14-07-2017 00:00:00 16.34653 C 77.4965 % 12.41 C
347 15-07-2017 00:00:00 16.46389 C 74.5417 % 11.93 C
348 16-07-2017 00:00:00 19.03924 C 81.1215 % 15.73 C
349 17-07-2017 00:00:00 20.61007 C 81.2743 % 17.29 C
350 18-07-2017 00:00:00 21.7625 C 75.4965 % 17.24 C
Sensor: Nr:Datum:Temp:Feuchte:Taupunkt:
Aussen-T/F 351 19-07-2017 00:00:00 23.46806 C 73.3090 % 18.42 C
352 20-07-2017 00:00:00 21.83889 C 79.5764 % 18.15 C
353 21-07-2017 00:00:00 20.14583 C 71.6979 % 14.88 C
354 22-07-2017 00:00:00 21.77813 C 82.2743 % 18.62 C
355 23-07-2017 00:00:00 18.27639 C 78.7153 % 14.52 C
356 24-07-2017 00:00:00 14.9816 C 91.3681 % 13.59 C
357 25-07-2017 00:00:00 14.46979 C 96.2014 % 13.87 C
358 26-07-2017 00:00:00 17.50729 C 86.0139 % 15.14 C
359 27-07-2017 00:00:00 18.9184 C 89.6250 % 17.18 C
360 28-07-2017 00:00:00 17.14236 C 83.5694 % 14.34 C
361 29-07-2017 00:00:00 20.44271 C 81.0174 % 17.07 C
362 30-07-2017 00:00:00 22.74236 C 73.6667 % 17.8 C
363 31-07-2017 00:00:00 20.73542 C 77.8750 % 16.74 C
364 01-08-2017 00:00:00 19.90799 C 94.6424 % 19.02 C
365 02-08-2017 00:00:00 21.09306 C 86.4688 % 18.75 C

Maximal/Minimal-Werte vom 03.08.2016 - 02.08.2017

Sensor Min Max Avg
Temp
(Aussen-T/F)
-10.6 °C
22-01-2017  07:55:00
35.6 °C
29-05-2017  17:30:00
10.88 °C
Feuchte
(Aussen-T/F)
22 %
27-03-2017  17:45:00
98 %
16-10-2016  12:55:00
83.46 %
Taupunkt
(Aussen-T/F)
-8.47 C
22-01-2017  00:00:00
20.05 C
27-08-2016  00:00:00
8.02 C

Die Daten stammen von einer Davis Vantage Pro 2 Wetter-Station und werden unter Linux mit der Software wview2wettercgi und aufbereitet. Alle Angaben erfolgen ohne Gewähr für ihre Vollständigkeit oder Richtigkeit.
Kontakt: Rainer Krienke krienke@uni-koblenz.de . Meine Webseiten an der Uni Koblenz oder privat.
Version: $Revision: 0.78 $